Back to catalog

OPS 1509

TRANSIT 10

AliveNavigationPO
NORAD 1864·PAYLOAD·🇺🇸 United States

Launched Dec 22, 1965 from Vandenberg Space Force Base

Loading…

Next Passes (next 24 hours)

TLE

FreshSource: Space-Track

Epoch: Sep 14, 2026, 07:25 UTC

1 01864U 65109A   26257.30962826  .00000118  00000-0  99673-4 0  9996
2 01864  89.0756 226.5839 0107819 305.0321  54.0765 13.79082578 48381

Track OPS 1509 in real time with AllMySat

Download on the App Store